[[{"header":{"parameterUnit":"m.s-1","parameterCategory":1,"la1":30.2991,"la2":30.254,"lo1":-89.0895,"lo2":-89.0444,"dy":0.0017,"dx":0.0017,"nx":28,"ny":28,"refTime":"2023-04-08T21:00:00:Z","depth":0,"parameterNumber":2,"parameterNumberName":"U-component_of_WINDS"},"data":[0,0,0,0,0,0,0,0,0,0,0,0,0,0,0,0,0,0,0,0,0,0,0,0,0,0,0,0,0,0,0,0,0,0,0,0,0,0,0,0,0,0,0,0,0,0,0,0,0,0,0,0,0,0,0,0,0,0,-0.3498,-0.3499,0,-0.3605,-0.3607,-0.3608,-0.3604,-0.3603,-0.3601,-0.36,-0.3718,-0.3723,-0.3727,0,0,0,0,0,0,0,0,0,0,0,0,0,-0.3298,-0.3302,-0.3498,-0.3499,-0.35,-0.3605,-0.3607,-0.3608,-0.3604,-0.3602,-0.3601,-0.3599,-0.3717,-0.3722,-0.3728,0,0,0,0,0,0,0,0,0,0,0,0,0,-0.3393,-0.3303,-0.3497,-0.3511,-0.3513,-0.3605,-0.3607,-0.3609,-0.3605,-0.3602,-0.36,-0.3598,-0.3715,-0.3722,-0.3728,-0.3816,0,0,-0.3749,-0.3752,0,0,0,0,0,0,0,0,-0.3388,-0.3401,-0.3508,-0.351,-0.3513,-0.3589,-0.358,-0.3679,-0.3605,-0.357,-0.36,-0.3597,-0.3678,-0.3687,-0.3713,-0.3822,-0.3827,-0.375,-0.3754,-0.3757,-0.3759,0,0,0,0,0,0,0,-0.3381,-0.3396,-0.3541,-0.3509,-0.3512,-0.3515,-0.3526,-0.3599,-0.3636,-0.3573,-0.3573,-0.3585,-0.3679,-0.3706,-0.3716,-0.3829,-0.375,-0.3756,-0.376,-0.3763,-0.402,-0.4023,0,0,0,0,0,0,-0.3371,-0.3391,-0.3537,-0.3544,-0.3443,-0.352,-0.3532,-0.3567,-0.3635,-0.3643,-0.3587,-0.3585,-0.3696,-0.3708,-0.372,-0.3831,-0.3757,-0.3763,-0.3767,-0.4017,-0.4021,-0.4023,0,0,0,0,0,0,-0.3366,-0.3384,-0.3533,-0.3467,-0.3486,-0.3526,-0.3565,-0.357,-0.3598,-0.3645,-0.3653,-0.3608,-0.3694,-0.371,-0.3793,-0.3834,-0.3767,-0.3773,-0.4014,-0.4018,-0.4022,-0.4051,0,0,0,0,0,0,-0.3361,-0.3382,-0.3414,-0.3468,-0.349,-0.3601,-0.3567,-0.3574,-0.3609,-0.3606,-0.3667,-0.3675,-0.3694,-0.3783,-0.38,-0.3843,-0.3778,-0.4011,-0.4016,-0.4021,-0.4046,-0.4055,-0.4063,0,0,0,0,0,-0.3353,-0.3419,-0.3415,-0.3433,-0.353,-0.3604,-0.3617,-0.3635,-0.3612,-0.3646,-0.3677,-0.3673,-0.3826,-0.3791,-0.381,-0.3856,-0.4008,-0.4014,-0.402,-0.4042,-0.4053,-0.4063,0,0,0,0,0,0,-0.3371,-0.3426,-0.3423,-0.3507,-0.355,-0.3603,-0.3646,-0.3645,-0.3698,-0.3694,-0.3717,-0.3731,-0.3814,-0.3843,-0.3803,-0.3947,-0.3915,-0.3925,-0.3925,-0.3936,-0.3944,-0.3937,-0.3784,0,0,0,0,0,-0.3384,-0.3437,-0.3483,-0.3553,-0.3574,-0.3606,-0.3639,-0.3649,-0.3696,-0.3716,-0.3752,-0.3801,-0.386,-0.3899,-0.3956,-0.4049,-0.4065,-0.4091,-0.4099,-0.4105,-0.4115,-0.4171,-0.4184,-0.4044,-0.4043,-0.4043,0,0,-0.3413,-0.3449,-0.3482,-0.3557,-0.3592,-0.3649,-0.3622,-0.3683,-0.3727,-0.3726,-0.3806,-0.3835,-0.3891,-0.398,-0.4021,-0.4007,-0.4157,-0.4113,-0.4118,-0.4124,-0.4178,-0.4191,-0.4203,-0.4048,-0.4047,-0.4046,0,0,-0.3495,-0.3526,-0.3589,-0.3624,-0.3677,-0.3698,-0.3713,-0.3766,-0.3784,-0.3864,-0.3866,-0.3919,-0.402,-0.4061,-0.4095,-0.4194,-0.4194,-0.4212,-0.4256,-0.431,-0.4321,-0.4331,-0.437,-0.4384,-0.422,-0.4221,-0.4221,0,-0.3526,-0.3609,-0.3623,-0.3684,-0.3719,-0.3718,-0.3784,-0.3818,-0.3888,-0.3914,-0.3895,-0.4024,-0.4061,-0.4161,-0.4185,-0.4211,-0.4233,-0.4206,-0.4318,-0.4328,-0.4338,-0.4376,-0.439,-0.4223,-0.4222,-0.4222,-0.4222,0,-0.3645,-0.3703,-0.3748,-0.3813,-0.3853,-0.3917,-0.3944,-0.3983,-0.3989,-0.4013,-0.4098,-0.4142,-0.4209,-0.4233,-0.4241,-0.4336,-0.4326,-0.4312,-0.4282,-0.4353,-0.4389,-0.4403,-0.4226,-0.4225,-0.4224,-0.4224,0,0,-0.3744,-0.3815,-0.3831,-0.3862,-0.392,-0.3967,-0.4032,-0.4096,-0.4131,-0.4179,-0.4237,-0.4322,-0.4311,-0.4349,-0.4362,-0.4408,-0.4489,-0.439,-0.4392,-0.441,-0.4601,-0.4613,-0.4629,-0.4487,-0.449,-0.4492,-0.4598,0,-0.3835,-0.3947,-0.3962,-0.4064,-0.412,-0.4119,-0.4177,-0.4221,-0.4245,-0.4299,-0.4327,-0.4388,-0.4366,-0.439,-0.4436,-0.4469,-0.4528,-0.4461,-0.4546,-0.4549,-0.4536,-0.4648,-0.466,-0.4757,-0.4611,-0.4614,-0.4615,0,-0.3956,-0.4006,-0.4112,-0.4164,-0.4189,-0.424,-0.4301,-0.435,-0.4401,-0.4416,-0.4459,-0.4466,-0.4538,-0.4501,-0.4603,-0.4557,-0.4592,-0.4614,-0.4618,-0.463,-0.4589,-0.4666,-0.4788,-0.4805,-0.4637,-0.4635,-0.4634,0,-0.4022,-0.4115,-0.4192,-0.4218,-0.4279,-0.4316,-0.4344,-0.4392,-0.443,-0.4484,-0.451,-0.4572,-0.4607,-0.4657,-0.4682,-0.4653,-0.4784,-0.4748,-0.4802,-0.4802,-0.4832,-0.4831,-0.4966,-0.4849,-0.4849,-0.4848,-0.4848,0,-0.4124,-0.4191,-0.4222,-0.427,-0.4345,-0.4363,-0.4438,-0.4465,-0.4508,-0.4564,-0.4567,-0.462,-0.4648,-0.4707,-0.4727,-0.481,-0.4825,-0.4842,-0.4847,-0.4844,-0.4842,-0.487,-0.4866,-0.4852,-0.4851,-0.4851,-0.485,0,-0.4212,-0.4235,-0.4319,-0.437,-0.4384,-0.4438,-0.4484,-0.4532,-0.4555,-0.4626,-0.4644,-0.4682,-0.4751,-0.478,-0.4865,-0.4879,-0.4975,-0.4974,-0.4958,-0.496,-0.5014,-0.501,-0.5175,-0.5199,-0.5062,-0.5063,-0.5064,0,-0.4277,-0.4328,-0.4384,-0.442,-0.4449,-0.4507,-0.4545,-0.4565,-0.4606,-0.4668,-0.471,-0.4778,-0.4834,-0.4945,-0.4982,-0.5048,-0.5051,-0.5104,-0.5061,-0.5057,-0.5057,-0.5055,-0.5062,-0.5113,-0.5115,-0.5116,-0.5117,0,-0.4392,-0.4401,-0.4455,-0.4514,-0.4559,-0.4607,-0.4654,-0.4684,-0.4711,-0.4758,-0.4826,-0.487,-0.4956,-0.5025,-0.5093,-0.5126,-0.5129,-0.5129,-0.5146,-0.5145,-0.5135,-0.5145,-0.4983,-0.5126,-0.5125,-0.5125,-0.5124,-0.5124,-0.4474,-0.452,-0.4567,-0.4627,-0.4664,-0.4708,-0.4756,-0.4785,-0.4842,-0.4912,-0.4921,-0.4996,-0.5049,-0.514,-0.5176,-0.5238,-0.5225,-0.5248,-0.5254,-0.5261,-0.5266,-0.5122,-0.525,-0.5249,-0.5249,-0.5249,-0.5249,0,-0.4592,-0.4622,-0.4677,-0.4742,-0.4791,-0.4784,-0.4836,-0.4878,-0.4943,-0.499,-0.5045,-0.5126,-0.5194,-0.5236,-0.5305,-0.5347,-0.535,-0.5365,-0.5364,-0.5373,-0.5272,-0.5252,-0.5362,-0.5362,-0.5362,-0.5362,-0.5362,-0.5361,-0.466,-0.4739,-0.4754,-0.4852,-0.4883,-0.4954,-0.4985,-0.5027,-0.5065,-0.5155,-0.521,-0.5236,-0.5283,-0.5356,-0.5419,-0.543,-0.5457,-0.5474,-0.5485,-0.5391,-0.5379,-0.5368,-0.535,-0.5478,-0.5478,-0.5581,-0.5582,-0.5583]},{"header":{"parameterUnit":"m.s-1","parameterCategory":1,"la1":30.2991,"la2":30.254,"lo1":-89.0895,"lo2":-89.0444,"dy":0.0017,"dx":0.0017,"nx":28,"ny":28,"refTime":"2023-04-08T21:00:00:Z","depth":0,"parameterNumber":3,"parameterNumberName":"V-component_of_WINDS"},"data":[0,0,0,0,0,0,0,0,0,0,0,0,0,0,0,0,0,0,0,0,0,0,0,0,0,0,0,0,0,0,0,0,0,0,0,0,0,0,0,0,0,0,0,0,0,0,0,0,0,0,0,0,0,0,0,0,0,0,-3.0945,-3.0945,0,-3.0941,-3.0941,-3.0941,-3.0986,-3.0988,-3.0989,-3.099,-3.098,-3.0978,-3.0977,0,0,0,0,0,0,0,0,0,0,0,0,0,-3.0988,-3.0987,-3.0945,-3.0945,-3.0945,-3.0941,-3.0941,-3.0941,-3.0986,-3.0988,-3.0989,-3.0991,-3.098,-3.0978,-3.0977,0,0,0,0,0,0,0,0,0,0,0,0,0,-3.0975,-3.0987,-3.0945,-3.0967,-3.0969,-3.0941,-3.0941,-3.0941,-3.0986,-3.0988,-3.099,-3.0991,-3.0981,-3.0978,-3.0976,-3.0924,0,0,-3.097,-3.0969,0,0,0,0,0,0,0,0,-3.0976,-3.0973,-3.0964,-3.0966,-3.0968,-3.0966,-3.0952,-3.0935,-3.0985,-3.0979,-3.099,-3.0992,-3.0973,-3.0972,-3.0966,-3.0924,-3.0923,-3.0969,-3.0968,-3.0967,-3.0966,0,0,0,0,0,0,0,-3.0977,-3.0974,-3.0943,-3.0964,-3.0966,-3.0976,-3.0976,-3.0949,-3.0965,-3.098,-3.0983,-3.0983,-3.0974,-3.0968,-3.0967,-3.0923,-3.0969,-3.0967,-3.0966,-3.0965,-3.084,-3.0838,0,0,0,0,0,0,-3.0975,-3.0974,-3.0943,-3.0943,-3.0977,-3.0974,-3.0974,-3.0965,-3.0966,-3.0968,-3.0981,-3.0985,-3.0971,-3.0969,-3.0966,-3.0907,-3.0967,-3.0965,-3.0964,-3.0842,-3.0839,-3.0837,0,0,0,0,0,0,-3.0976,-3.0972,-3.0943,-3.096,-3.0957,-3.0971,-3.096,-3.0964,-3.0958,-3.0967,-3.0969,-3.0972,-3.0973,-3.0969,-3.0935,-3.0907,-3.0964,-3.0962,-3.0844,-3.0841,-3.0838,-3.0787,0,0,0,0,0,0,-3.0977,-3.0972,-3.0953,-3.0959,-3.0956,-3.0914,-3.0958,-3.0962,-3.0955,-3.0959,-3.0959,-3.0961,-3.0974,-3.0938,-3.0933,-3.0905,-3.096,-3.0847,-3.0843,-3.0839,-3.0792,-3.0783,-3.0776,0,0,0,0,0,-3.0978,-3.0937,-3.0952,-3.0948,-3.0933,-3.0912,-3.091,-3.0928,-3.0952,-3.0933,-3.0939,-3.0961,-3.0911,-3.0935,-3.0929,-3.09,-3.0848,-3.0844,-3.0839,-3.0795,-3.0785,-3.0776,0,0,0,0,0,0,-3.0925,-3.0938,-3.0955,-3.0915,-3.0912,-3.092,-3.0896,-3.0916,-3.0905,-3.0909,-3.093,-3.093,-3.0892,-3.0893,-3.0918,-3.0851,-3.0884,-3.0878,-3.0852,-3.0842,-3.0834,-3.0835,-3.0958,0,0,0,0,0,-3.0909,-3.0893,-3.0904,-3.0868,-3.0866,-3.0881,-3.0873,-3.0887,-3.0884,-3.0883,-3.0886,-3.0881,-3.0865,-3.0853,-3.0839,-3.0792,-3.0793,-3.0769,-3.0761,-3.0755,-3.0749,-3.0726,-3.0717,-3.0822,-3.0822,-3.0822,0,0,-3.0875,-3.088,-3.0868,-3.0857,-3.0857,-3.0839,-3.088,-3.0858,-3.0844,-3.0879,-3.0848,-3.085,-3.0846,-3.0806,-3.0788,-3.0805,-3.0721,-3.0749,-3.0744,-3.0742,-3.0721,-3.0711,-3.0702,-3.0819,-3.082,-3.082,0,0,-3.0804,-3.0806,-3.0777,-3.0777,-3.0777,-3.0788,-3.0781,-3.0786,-3.079,-3.0759,-3.0786,-3.0769,-3.074,-3.0737,-3.0731,-3.0661,-3.0681,-3.0655,-3.0614,-3.0591,-3.0583,-3.0575,-3.0552,-3.0543,-3.065,-3.065,-3.065,0,-3.0761,-3.0736,-3.0759,-3.0736,-3.0731,-3.0764,-3.0735,-3.0732,-3.0727,-3.0722,-3.0741,-3.0707,-3.0706,-3.0667,-3.065,-3.0644,-3.0637,-3.0656,-3.0582,-3.0575,-3.0569,-3.0547,-3.0537,-3.0647,-3.0647,-3.0648,-3.0648,0,-3.0684,-3.0666,-3.0642,-3.064,-3.0631,-3.0605,-3.0623,-3.0611,-3.0627,-3.0635,-3.0605,-3.0606,-3.0593,-3.0584,-3.0597,-3.0547,-3.0558,-3.0579,-3.0613,-3.0556,-3.0535,-3.0526,-3.0643,-3.0644,-3.0645,-3.0645,0,0,-3.0578,-3.059,-3.0581,-3.0581,-3.0585,-3.0571,-3.0546,-3.0536,-3.0527,-3.0521,-3.0501,-3.0477,-3.0498,-3.0492,-3.0506,-3.0486,-3.0432,-3.051,-3.051,-3.0496,-3.0378,-3.0362,-3.0352,-3.0446,-3.0444,-3.0443,-3.0379,0,-3.0511,-3.0472,-3.0492,-3.045,-3.0434,-3.0466,-3.0445,-3.0444,-3.0452,-3.0438,-3.0446,-3.0429,-3.0457,-3.0454,-3.0436,-3.0443,-3.0409,-3.0447,-3.0427,-3.0426,-3.0428,-3.0341,-3.0324,-3.0264,-3.0371,-3.0369,-3.0368,0,-3.0426,-3.0421,-3.0378,-3.0387,-3.0381,-3.0361,-3.0355,-3.0342,-3.0342,-3.0349,-3.0343,-3.0362,-3.0338,-3.0372,-3.0339,-3.0365,-3.0357,-3.0359,-3.0357,-3.0356,-3.0394,-3.0339,-3.0245,-3.0236,-3.0356,-3.0357,-3.0357,0,-3.0355,-3.0337,-3.031,-3.0308,-3.0317,-3.0303,-3.0306,-3.0308,-3.0301,-3.0295,-3.0291,-3.0281,-3.0275,-3.0266,-3.0282,-3.0305,-3.0247,-3.0281,-3.0252,-3.0252,-3.0238,-3.0239,-3.0143,-3.0232,-3.0232,-3.0232,-3.0233,0,-3.0278,-3.025,-3.0279,-3.0261,-3.0232,-3.0255,-3.0225,-3.0231,-3.0233,-3.0217,-3.0243,-3.0227,-3.0249,-3.0235,-3.0246,-3.0218,-3.0215,-3.0219,-3.0223,-3.0218,-3.0217,-3.0214,-3.0218,-3.023,-3.0231,-3.0231,-3.0231,0,-3.0193,-3.0211,-3.0184,-3.0196,-3.0198,-3.0176,-3.0185,-3.017,-3.018,-3.016,-3.0156,-3.0171,-3.0157,-3.0172,-3.0157,-3.0165,-3.0128,-3.0136,-3.0128,-3.0131,-3.0101,-3.0105,-3.0,-2.9988,-3.0084,-3.0083,-3.0082,0,-3.0143,-3.0124,-3.0134,-3.0127,-3.0129,-3.0116,-3.011,-3.0133,-3.0125,-3.0125,-3.0109,-3.0098,-3.009,-3.0064,-3.0073,-3.0063,-3.0072,-3.0036,-3.0071,-3.0067,-3.0073,-3.0075,-3.0073,-3.0029,-3.0028,-3.0027,-3.0026,0,-3.0053,-3.0064,-3.0055,-3.0051,-3.0044,-3.004,-3.0039,-3.003,-3.0054,-3.0044,-3.0031,-3.0025,-3.0012,-3.0,-2.9992,-2.9994,-3.0014,-3.0016,-3.0009,-3.0003,-3.0,-3.0003,-3.011,-3.0018,-3.0019,-3.002,-3.002,-3.002,-2.9985,-2.997,-2.9976,-2.9966,-2.9968,-2.9967,-2.9954,-2.9963,-2.9954,-2.9946,-2.9959,-2.9943,-2.9945,-2.9937,-2.9937,-2.9924,-2.9939,-2.9928,-2.9925,-2.9923,-2.9919,-3.0002,-2.9922,-2.9922,-2.9923,-2.9923,-2.9923,0,-2.9898,-2.9904,-2.9895,-2.9893,-2.9886,-2.9908,-2.9908,-2.99,-2.9886,-2.9887,-2.9879,-2.9864,-2.9853,-2.9863,-2.9853,-2.9841,-2.985,-2.9838,-2.984,-2.984,-2.9905,-2.9913,-2.9831,-2.9831,-2.9831,-2.9831,-2.9831,-2.9831,-2.9851,-2.9827,-2.9839,-2.9816,-2.9822,-2.9808,-2.9806,-2.9805,-2.9806,-2.979,-2.9782,-2.9789,-2.9793,-2.9785,-2.9776,-2.9779,-2.9774,-2.9759,-2.9765,-2.9826,-2.9835,-2.9844,-2.9851,-2.9758,-2.9757,-2.9701,-2.9701,-2.97]}]]